Location: Winston-Salem
(0.0000°N, 0.0000°E)
Time: 21:07:51
(UTC+00:00)

ISS - Visible Passes

Search period start: 18 June 2019 00:00
Search period end: 28 June 2019 00:00
Orbit: 408 x 418 km, 51.6° (Epoch: 19 June)

Date Brightness Start Highest point End Pass type
(mag) Time Alt. Az. Time Alt. Az. Time Alt. Az.
19 Jun -3.7 05:28:37 10° SSW 05:31:55 77° SE 05:35:12 10° NE visible
20 Jun -2.1 04:41:00 20° SSE 04:42:29 28° SE 04:45:22 10° ENE visible
21 Jun -0.6 03:54:06 11° ESE 03:54:06 11° ESE 03:54:27 10° E visible
21 Jun -2.1 05:26:59 10° WSW 05:29:29 20° NW 05:31:59 10° N visible
22 Jun -3.5 04:40:03 50° NW 04:40:03 50° NW 04:43:14 10° NNE visible
23 Jun -0.8 03:53:02 16° NE 03:53:02 16° NE 03:53:47 10° NE visible
